Content
SEND FEEDBACK

Daily
Averages
Monthly
Summary
Croatia

PAZIN, CROATIA


Home > Europe > Croatia
Elevation: 312 feet     Latitude: 45 31N     Longitude: 013 34E

WEATHER
 
SELECT A DAY
Number of Records: 270,640;   Date Range: 1/10/97 - 10/19/14
 
SHARE

PRINT THIS DATA

[ ← Previous Day ]
WEATHER ALMANAC - SEPTEMBER 28, 2013
[ Next Day → ]
[ °C ]   °F
Weather ElementAverageHighLow
Temperature70.6 °F78.8 °F (2:00 pm)64.4 °F (12:30 am)
Dewpoint63.4 °F66.2 °F (6:30 pm)62.6 °F (12:30 am)
Humidity78.4 %94 % (12:30 am)57 % (2:00 pm)
Barometer29.90 in29.95 in (12:30 am)29.89 in (3:30 am)
Wind Speed6.4 mph13.8 mph (3:30 pm)
Weather ElementAverage
Visibility6.1 mi
Wind DirectionSSE (142.3 °)

Weather ElementTotal
Precipitation---
Cooling Degree Days6.6 (Base 65)
Growing Degree Days21.6 (Base 50)
Averaged from 47 records on September 28, 2013
WEATHER CONDITIONS BREAKOUT
WIND DIRECTION BREAKOUT
WEATHER BY HOUR - SEPTEMBER 28, 2013
[ °C ]   °F
Local TimeTemperatureDewpointHumidityBarometerVisibilityWind DirectionWind SpeedGust SpeedPrecipitationEventsConditions
12:30 AM64.4 °F62.6 °F94 %29.95 in4.3 miESE (120°)2.3 mphMostly Cloudy
1:00 AM64.4 °F62.6 °F94 %29.95 in3.7 miESE (120°)4.6 mphMostly Cloudy
1:30 AM66.2 °F64.4 °F94 %29.92 in6.2 miESE (120°)5.8 mphOvercast
2:00 AM66.2 °F64.4 °F94 %29.92 in6.2 miSE (130°)6.9 mphMostly Cloudy
2:30 AM66.2 °F62.6 °F88 %29.92 in6.2 miESE (110°)6.9 mphMostly Cloudy
3:00 AM66.2 °F62.6 °F88 %29.92 in6.2 miESE (120°)5.8 mphMostly Cloudy
3:30 AM66.2 °F62.6 °F88 %29.89 in6.2 miSE (140°)3.5 mphMostly Cloudy
4:00 AM66.2 °F62.6 °F88 %29.92 in6.2 miESE (120°)5.8 mphMostly Cloudy
4:30 AM66.2 °F62.6 °F88 %29.89 in6.2 miESE (120°)6.9 mphMostly Cloudy
5:00 AM66.2 °F64.4 °F94 %29.89 in6.2 miESE (120°)5.8 mphOvercast
5:30 AM66.2 °F62.6 °F88 %29.89 in6.2 miESE (110°)5.8 mphMostly Cloudy
6:00 AM66.2 °F62.6 °F88 %29.89 in6.2 miSE (140°)5.8 mphOvercast
6:30 AM66.2 °F62.6 °F88 %29.89 in6.2 miSE (140°)5.8 mphOvercast
7:00 AM66.2 °F62.6 °F88 %29.89 in6.2 miSE (140°)4.6 mphMostly Cloudy
7:30 AM66.2 °F62.6 °F88 %29.89 in6.2 miSE (140°)3.5 mphMostly Cloudy
8:00 AM66.2 °F62.6 °F88 %29.89 in6.2 miESE (120°)4.6 mphMostly Cloudy
8:30 AM68.0 °F62.6 °F83 %29.92 in6.2 miSE (130°)5.8 mphMostly Cloudy
9:00 AM68.0 °F64.4 °F88 %29.92 in6.2 miESE (110°)4.6 mphMostly Cloudy
9:30 AM71.6 °F62.6 °F73 %29.92 in6.2 miEast (100°)4.6 mphMostly Cloudy
10:00 AM73.4 °F64.4 °F73 %29.92 in6.2 miESE (120°)4.6 mphMostly Cloudy
10:30 AM73.4 °F64.4 °F73 %29.92 in6.2 miSE (140°)5.8 mphScattered Clouds
11:00 AM75.2 °F64.4 °F69 %29.92 in6.2 miSSE (150°)6.9 mphScattered Clouds
11:30 AM75.2 °F64.4 °F69 %29.92 in6.2 miSSE (160°)6.9 mphScattered Clouds
12:00 PM77.0 °F64.4 °F65 %29.92 in6.2 miSSE (160°)4.6 mphMostly Cloudy
12:30 PM75.2 °F64.4 °F69 %29.92 in6.2 miSouth (170°)4.6 mphMostly Cloudy
1:00 PM77.0 °F64.4 °F65 %29.89 in6.2 miSSW (210°)9.2 mphMostly Cloudy
1:30 PM77.0 °F62.6 °F61 %29.89 in6.2 miSSW (200°)10.4 mphScattered Clouds
2:00 PM78.8 °F62.6 °F57 %29.89 in6.2 miSSW (210°)11.5 mphScattered Clouds
2:30 PM78.8 °F62.6 °F57 %29.89 in6.2 miSSW (210°)12.7 mphPartly Cloudy
3:00 PM77.0 °F62.6 °F61 %29.89 in6.2 miSSW (200°)12.7 mphPartly Cloudy
3:30 PM77.0 °F62.6 °F61 %29.89 in6.2 miSSW (210°)13.8 mphScattered Clouds
4:00 PM75.2 °F64.4 °F69 %29.89 in6.2 miSSW (210°)12.7 mphScattered Clouds
4:30 PM75.2 °F64.4 °F69 %29.89 in6.2 miSSW (210°)11.5 mphScattered Clouds
5:00 PM73.4 °F64.4 °F73 %29.89 in6.2 miSSW (210°)11.5 mphScattered Clouds
5:30 PM73.4 °F64.4 °F73 %29.89 in6.2 miSouth (180°)6.9 mphScattered Clouds
6:00 PM73.4 °F64.4 °F73 %29.89 in6.2 miSouth (170°)3.5 mphPartly Cloudy
6:30 PM71.6 °F66.2 °F83 %29.89 in6.2 miSouth (170°)5.8 mphScattered Clouds
7:00 PM71.6 °F64.4 °F78 %29.89 in6.2 miSouth (180°)4.6 mphMostly Cloudy
7:30 PM71.6 °F64.4 °F78 %29.89 in6.2 miSE (140°)4.6 mphMostly Cloudy
8:00 PM69.8 °F62.6 °F78 %29.89 in6.2 miSE (130°)4.6 mphMostly Cloudy
8:30 PM69.8 °F62.6 °F78 %29.89 in6.2 miVariable2.3 mphMostly Cloudy
9:00 PM69.8 °F62.6 °F78 %29.89 in6.2 miSSE (160°)3.5 mphMostly Cloudy
9:30 PM68.0 °F62.6 °F83 %29.89 in6.2 miESE (120°)5.8 mphMostly Cloudy
10:00 PM69.8 °F62.6 °F78 %29.89 in6.2 miESE (110°)5.8 mphMostly Cloudy
10:30 PM69.8 °F62.6 °F78 %29.89 in6.2 miESE (110°)6.9 mphMostly Cloudy
11:00 PM69.8 °F62.6 °F78 %29.89 in6.2 miVariable3.5 mphMostly Cloudy
11:30 PM69.8 °F62.6 °F78 %29.89 in6.2 miEast (100°)3.5 mphMostly Cloudy
Hourly data recorded from LJPZ, located miles away from Pazin, Croatia







STORIES FROM OUR PARTNERS